EDT,Max TemperatureF,Mean TemperatureF,Min TemperatureF,Max Dew PointF,MeanDew PointF,Min DewpointF,Max Humidity, Mean Humidity, Min Humidity, Max Sea Level PressureIn, Mean Sea Level PressureIn, Min Sea Level PressureIn, Max VisibilityMiles, Mean VisibilityMiles, Min VisibilityMiles, Max Wind SpeedMPH, Mean Wind SpeedMPH, Max Gust SpeedMPH,PrecipitationIn, CloudCover, Events, WindDirDegrees
2012-3-1,33,31,28,32,28,25,100,89,78,29.89,29.68,29.48,10,6,1,16,6,20,0.16,8,Snow,38
2012-3-2,35,33,30,32,31,28,100,91,82,29.87,29.53,29.04,10,5,1,24,8,32,0.41,8,Rain-Snow-Thunderstorm,88
2012-3-3,33,26,18,31,24,14,92,87,81,29.73,29.34,28.95,5,2,1,22,10,29,0.42,8,Snow,305
2012-3-4,18,10,1,13,7,-2,92,83,73,30.01,29.83,29.70,10,5,1,14,7,17,0.02,7,Snow,336
2012-3-5,23,10,-3,16,7,-8,91,76,61,30.38,30.23,30.01,10,10,6,13,3,15,T,5,Snow,244
2012-3-6,42,31,19,33,24,16,89,75,60,30.36,30.14,29.91,10,9,2,21,10,25,0.01,4,Snow,163
2012-3-7,58,50,42,43,37,33,70,55,40,29.91,29.81,29.64,10,10,10,22,13,32,0.00,5,,203
2012-3-8,56,37,18,49,30,18,93,76,58,30.06,29.81,29.59,10,10,4,24,9,30,0.20,7,Rain,279
2012-3-9,27,22,17,25,17,5,92,69,45,30.54,30.17,29.98,10,6,1,25,11,40,0.03,6,Snow,285
2012-3-10,46,28,10,27,15,7,88,62,36,30.56,30.31,30.07,10,10,10,24,9,31,0.00,3,,189
2012-3-11,66,50,34,30,28,26,53,40,26,30.16,30.11,30.07,10,10,10,17,9,24,0.00,0,,230
2012-3-12,52,43,34,52,42,25,96,71,45,30.14,29.85,29.68,10,6,0,13,6,16,0.47,6,Fog-Rain,173
2012-3-13,54,42,29,43,36,25,100,68,35,30.08,29.86,29.73,10,10,9,21,9,31,0.00,3,,249
2012-3-14,60,42,24,36,29,21,92,64,35,30.13,30.05,29.95,10,10,10,15,4,20,0.00,0,,135
2012-3-15,68,52,36,52,41,33,92,70,48,30.04,29.98,29.91,10,10,9,13,3,14,0.00,1,,344
2012-3-16,61,46,30,44,38,29,100,74,47,30.15,30.12,30.03,10,7,0,14,4,16,0.00,3,Fog,121
2012-3-17,81,60,38,55,45,37,100,67,33,30.14,30.08,30.00,10,4,0,23,8,30,0.00,2,Fog,171
2012-3-18,75,60,44,55,50,44,93,71,49,30.08,30.03,29.99,10,10,8,14,5,17,0.00,0,,159
2012-3-19,79,60,40,55,47,39,100,71,42,30.09,30.05,30.02,10,5,0,18,6,23,0.00,2,Fog,148
2012-3-20,84,67,49,55,51,46,89,61,33,30.11,30.07,30.02,10,10,8,20,7,25,T,3,Thunderstorm,155
2012-3-21,87,69,50,55,53,48,96,63,30,30.16,30.11,30.03,10,10,8,16,6,28,0.04,2,,188
2012-3-22,61,56,50,59,53,46,100,84,67,30.24,30.16,30.08,10,7,0,17,5,22,0.04,4,Fog-Rain-Thunderstorm,23
2012-3-23,53,51,48,48,44,40,93,80,66,30.21,30.12,30.01,10,10,10,16,9,22,0.03,6,Rain,85
2012-3-24,54,49,43,40,34,31,76,59,41,30.01,29.95,29.91,10,10,10,15,10,21,0.02,7,Rain,86
2012-3-25,57,44,31,43,35,22,76,57,38,30.20,29.97,29.89,10,10,10,28,11,41,0.00,4,,314
2012-3-26,39,30,20,21,14,6,74,51,27,30.50,30.40,30.21,10,10,10,21,8,25,0.00,0,,356
2012-3-27,51,34,17,29,20,13,84,58,31,30.43,30.14,29.66,10,10,10,30,11,36,T,4,Rain,174
2012-3-28,56,47,37,43,36,26,83,65,46,29.99,29.71,29.52,10,10,7,21,10,32,T,7,Rain,293
2012-3-29,40,32,23,30,23,19,82,63,44,30.23,30.15,30.01,10,10,10,17,7,22,T,6,,356
2012-3-30,36,28,20,29,26,17,92,78,64,30.19,30.03,29.96,10,6,1,21,8,28,0.03,7,Snow,88
2012-3-31,43,37,31,30,27,24,92,72,51,30.09,30.01,29.86,10,10,10,14,6,16,T,6,,72